TimeCST,TemperatureF,Dew PointF,Humidity,Sea Level PressureIn,VisibilityMPH,Wind Direction,Wind SpeedMPH,Gust SpeedMPH,PrecipitationIn,Events,Conditions,WindDirDegrees,DateUTC
12:54 AM,44.1,26.1,49,30.14,10.0,SW,9.2,-,N/A,,Clear,220,2013-01-19 06:54:00
1:54 AM,44.1,26.1,49,30.14,10.0,SSW,10.4,-,N/A,,Clear,210,2013-01-19 07:54:00
2:54 AM,43.0,25.0,49,30.13,10.0,SW,9.2,-,N/A,,Clear,220,2013-01-19 08:54:00
3:54 AM,44.1,25.0,47,30.10,10.0,SSW,10.4,17.3,N/A,,Clear,210,2013-01-19 09:54:00
4:54 AM,44.1,25.0,47,30.09,10.0,SW,12.7,-,N/A,,Clear,220,2013-01-19 10:54:00
5:54 AM,45.0,25.0,46,30.07,10.0,SW,13.8,21.9,N/A,,Clear,220,2013-01-19 11:54:00
6:54 AM,46.0,25.0,44,30.06,10.0,SW,15.0,23.0,N/A,,Clear,220,2013-01-19 12:54:00
7:54 AM,46.9,26.1,44,30.05,10.0,SW,12.7,21.9,N/A,,Clear,230,2013-01-19 13:54:00
8:54 AM,48.9,27.0,43,30.05,10.0,WSW,13.8,21.9,N/A,,Clear,240,2013-01-19 14:54:00
9:54 AM,52.0,28.0,40,30.05,10.0,WSW,13.8,23.0,N/A,,Clear,240,2013-01-19 15:54:00
10:54 AM,55.9,30.9,39,30.01,10.0,SW,15.0,28.8,N/A,,Clear,230,2013-01-19 16:54:00
11:54 AM,60.1,30.9,33,29.96,10.0,WSW,17.3,26.5,N/A,,Clear,240,2013-01-19 17:54:00
12:54 PM,62.1,32.0,32,29.93,10.0,WSW,16.1,26.5,N/A,,Clear,240,2013-01-19 18:54:00
1:54 PM,64.0,32.0,30,29.92,10.0,WSW,16.1,29.9,N/A,,Scattered Clouds,240,2013-01-19 19:54:00
2:54 PM,64.9,32.0,29,29.92,10.0,WSW,19.6,24.2,N/A,,Scattered Clouds,250,2013-01-19 20:54:00
3:54 PM,63.0,30.9,30,29.94,10.0,West,15.0,23.0,N/A,,Scattered Clouds,260,2013-01-19 21:54:00
4:54 PM,57.9,32.0,37,29.96,10.0,WSW,11.5,-,N/A,,Clear,250,2013-01-19 22:54:00
5:54 PM,48.9,30.9,50,29.99,10.0,WSW,8.1,-,N/A,,Clear,250,2013-01-19 23:54:00
6:54 PM,46.9,32.0,56,30.02,10.0,West,8.1,-,N/A,,Clear,260,2013-01-20 00:54:00
7:54 PM,46.0,30.9,56,30.05,10.0,West,9.2,-,N/A,,Clear,260,2013-01-20 01:54:00
8:54 PM,48.9,33.1,54,30.07,10.0,West,9.2,-,N/A,,Clear,260,2013-01-20 02:54:00
9:54 PM,51.1,30.9,46,30.10,10.0,WNW,15.0,-,N/A,,Clear,290,2013-01-20 03:54:00
10:54 PM,48.9,30.0,48,30.12,10.0,WNW,12.7,-,N/A,,Clear,300,2013-01-20 04:54:00
11:54 PM,46.9,30.0,52,30.14,10.0,WNW,15.0,20.7,N/A,,Clear,290,2013-01-20 05:54:00